| time (UTC) | temp C | wind direction | speed KPH | gust KPH | rain 1hr cm | rain 24hr cm | rain mn cm | humidity % | barometer mb |
| 20260504184049 | 29 | 148 | 9.7 | 27.4 | 0.00 | 0.00 | 0.00 | 45 | 1010.8 |
| 20260504183024 | 29 | 160 | 9.7 | 27.4 | 0.00 | 0.00 | 0.00 | 45 | 1010.9 |
| 20260504182039 | 28 | 171 | 9.7 | 30.6 | 0.00 | 0.00 | 0.00 | 45 | 1011.2 |
| 20260504181029 | 28 | 163 | 11.3 | 29.0 | 0.00 | 0.00 | 0.00 | 45 | 1011.4 |
| 20260504180024 | 28 | 182 | 14.5 | 33.8 | 0.00 | 0.00 | 0.00 | 45 | 1011.4 |
| 20260504175020 | 28 | 161 | 14.5 | 46.7 | 0.00 | 0.00 | 0.00 | 44 | 1011.6 |
| 20260504174015 | 28 | 161 | 12.9 | 29.0 | 0.00 | 0.00 | 0.00 | 45 | 1011.7 |
| 20260504173045 | 27 | 169 | 11.3 | 24.1 | 0.00 | 0.00 | 0.00 | 45 | 1011.8 |
| 20260504172020 | 27 | 174 | 11.3 | 33.8 | 0.00 | 0.00 | 0.00 | 45 | 1012.1 |
| 20260504171015 | 27 | 168 | 11.3 | 27.4 | 0.00 | 0.00 | 0.00 | 45 | 1012.2 |
| 20260504151018 | 23 | 174 | 8.0 | 24.1 | 0.00 | 0.00 | 0.00 | 54 | 1013.5 |
| 20260504141020 | 27 | 182 | 9.7 | 20.9 | 0.00 | 0.00 | 0.00 | 43 | 1013.9 |
| 20260504081028 | 16 | 180 | 8.0 | 20.9 | 0.00 | 0.00 | 0.00 | 69 | 1014.4 |
| 20260504045023 | 18 | 171 | 6.4 | 16.1 | 0.00 | 0.00 | 0.00 | 59 | 1016.2 |
| 20260504044018 | 18 | 168 | 6.4 | 16.1 | 0.00 | 0.00 | 0.00 | 59 | 1016.3 |
| 20260504043028 | 18 | 164 | 4.8 | 12.9 | 0.00 | 0.00 | 0.00 | 58 | 1016.3 |
| 20260504042022 | 18 | 167 | 3.2 | 6.4 | 0.00 | 0.00 | 0.00 | 57 | 1016.4 |
| 20260504041042 | 18 | 168 | 4.8 | 14.5 | 0.00 | 0.00 | 0.00 | 56 | 1016.4 |
| 20260504040027 | 18 | 160 | 4.8 | 12.9 | 0.00 | 0.00 | 0.00 | 55 | 1016.4 |
| 20260504035022 | 19 | 161 | 3.2 | 12.9 | 0.00 | 0.00 | 0.00 | 54 | 1016.5 |
| 20260504034017 | 19 | 153 | 4.8 | 14.5 | 0.00 | 0.00 | 0.00 | 52 | 1016.4 |
| 20260504033107 | 20 | 163 | 6.4 | 17.7 | 0.00 | 0.00 | 0.00 | 52 | 1016.3 |
| 20260504032022 | 20 | 161 | 6.4 | 14.5 | 0.00 | 0.00 | 0.00 | 51 | 1016.4 |
| 20260504031017 | 20 | 171 | 6.4 | 14.5 | 0.00 | 0.00 | 0.00 | 51 | 1016.3 |
| 20260504030027 | 20 | 165 | 4.8 | 11.3 | 0.00 | 0.00 | 0.00 | 50 | 1016.1 |
| 20260504025023 | 20 | 155 | 6.4 | 20.9 | 0.00 | 0.00 | 0.00 | 48 | 1016.2 |
| 20260504024018 | 21 | 174 | 4.8 | 14.5 | 0.00 | 0.00 | 0.00 | 48 | 1016.1 |
| 20260504023028 | 21 | 155 | 4.8 | 14.5 | 0.00 | 0.00 | 0.00 | 47 | 1016.1 |
| 20260504022023 | 21 | 160 | 4.8 | 11.3 | 0.00 | 0.00 | 0.00 | 47 | 1016.0 |
| 20260504021019 | 21 | 162 | 4.8 | 11.3 | 0.00 | 0.00 | 0.00 | 45 | 1016.1 |
| 20260504020048 | 22 | 164 | 6.4 | 16.1 | 0.00 | 0.00 | 0.00 | 45 | 1016.0 |
| 20260504015024 | 22 | 160 | 4.8 | 12.9 | 0.00 | 0.00 | 0.00 | 44 | 1016.0 |
| 20260504014018 | 22 | 155 | 3.2 | 9.7 | 0.00 | 0.00 | 0.00 | 42 | 1015.9 |
| 20260504013028 | 22 | 153 | 3.2 | 6.4 | 0.00 | 0.00 | 0.00 | 41 | 1015.8 |
| 20260504012023 | 23 | 155 | 3.2 | 12.9 | 0.00 | 0.00 | 0.00 | 38 | 1015.7 |
| 20260504011018 | 23 | 168 | 6.4 | 20.9 | 0.00 | 0.00 | 0.00 | 36 | 1015.7 |
| 20260504010028 | 24 | 160 | 6.4 | 16.1 | 0.00 | 0.00 | 0.00 | 34 | 1015.9 |
| 20260504005023 | 25 | 158 | 6.4 | 17.7 | 0.00 | 0.00 | 0.00 | 34 | 1015.8 |
| 20260504004038 | 25 | 160 | 6.4 | 17.7 | 0.00 | 0.00 | 0.00 | 33 | 1015.7 |
| 20260504003028 | 26 | 165 | 6.4 | 17.7 | 0.00 | 0.00 | 0.00 | 31 | 1015.8 |
| 20260504002023 | 26 | 176 | 6.4 | 14.5 | 0.00 | 0.00 | 0.00 | 30 | 1015.8 |
| 20260504001018 | 27 | 153 | 8.0 | 22.5 | 0.00 | 0.00 | 0.00 | 29 | 1015.9 |
| 20260504000028 | 28 | 161 | 8.0 | 20.9 | 0.00 | 0.00 | 0.00 | 28 | 1016.0 |
| 20260503235042 | 28 | 166 | 6.4 | 17.7 | 0.00 | 0.00 | 0.00 | 27 | 1015.9 |
| 20260503234037 | 28 | 163 | 6.4 | 16.1 | 0.00 | 0.00 | 0.00 | 27 | 1016.0 |
| 20260503233047 | 28 | 153 | 8.0 | 16.1 | 0.00 | 0.00 | 0.00 | 26 | 1016.1 |
| 20260503232022 | 28 | 160 | 6.4 | 22.5 | 0.00 | 0.00 | 0.00 | 26 | 1016.3 |
| 20260503231036 | 28 | 155 | 8.0 | 17.7 | 0.00 | 0.00 | 0.00 | 27 | 1016.3 |
| 20260503230027 | 29 | 160 | 8.0 | 22.5 | 0.00 | 0.00 | 0.00 | 26 | 1016.3 |
| 20260503225022 | 29 | 149 | 9.7 | 40.2 | 0.00 | 0.00 | 0.00 | 27 | 1016.3 |
| 20260503224017 | 29 | 161 | 8.0 | 20.9 | 0.00 | 0.00 | 0.00 | 27 | 1016.3 |
| 20260503223027 | 29 | 159 | 8.0 | 20.9 | 0.00 | 0.00 | 0.00 | 27 | 1016.4 |
| 20260503222022 | 30 | 160 | 6.4 | 14.5 | 0.00 | 0.00 | 0.00 | 26 | 1016.5 |
| 20260503221017 | 30 | 161 | 8.0 | 17.7 | 0.00 | 0.00 | 0.00 | 26 | 1016.7 |
| 20260503220048 | 30 | 169 | 6.4 | 17.7 | 0.00 | 0.00 | 0.00 | 25 | 1016.9 |
| 20260503215022 | 30 | 170 | 8.0 | 24.1 | 0.00 | 0.00 | 0.00 | 25 | 1016.9 |
| 20260503214017 | 30 | 179 | 8.0 | 17.7 | 0.00 | 0.00 | 0.00 | 25 | 1017.1 |
| 20260503213028 | 30 | 158 | 8.0 | 20.9 | 0.00 | 0.00 | 0.00 | 24 | 1017.2 |
| 20260503212023 | 30 | 156 | 6.4 | 17.7 | 0.00 | 0.00 | 0.00 | 25 | 1017.5 |
| 20260503211018 | 30 | 173 | 9.7 | 24.1 | 0.00 | 0.00 | 0.00 | 25 | 1017.5 |
| 20260503210049 | 30 | 155 | 8.0 | 17.7 | 0.00 | 0.00 | 0.00 | 25 | 1017.8 |
| 20260503205024 | 31 | 157 | 4.8 | 14.5 | 0.00 | 0.00 | 0.00 | 25 | 1017.9 |
| 20260503204019 | 31 | 162 | 8.0 | 20.9 | 0.00 | 0.00 | 0.00 | 25 | 1018.2 |
| 20260503203029 | 31 | 168 | 4.8 | 16.1 | 0.00 | 0.00 | 0.00 | 26 | 1018.2 |
| 20260503202024 | 30 | 141 | 3.2 | 9.7 | 0.00 | 0.00 | 0.00 | 27 | 1018.5 |
| 20260503201019 | 30 | 180 | 3.2 | 12.9 | 0.00 | 0.00 | 0.00 | 24 | 1018.6 |
| 20260503200029 | 30 | 172 | 6.4 | 16.1 | 0.00 | 0.00 | 0.00 | 25 | 1018.7 |
| 20260503195024 | 30 | 161 | 6.4 | 16.1 | 0.00 | 0.00 | 0.00 | 25 | 1019.0 |
| 20260503194019 | 30 | 171 | 6.4 | 14.5 | 0.00 | 0.00 | 0.00 | 26 | 1019.1 |
| 20260503193029 | 30 | 155 | 6.4 | 16.1 | 0.00 | 0.00 | 0.00 | 26 | 1019.2 |
| 20260503192025 | 30 | 167 | 6.4 | 17.7 | 0.00 | 0.00 | 0.00 | 28 | 1019.3 |
| 20260503191019 | 30 | 136 | 4.8 | 16.1 | 0.00 | 0.00 | 0.00 | 28 | 1019.7 |
| 20260503190029 | 30 | 93 | 3.2 | 16.1 | 0.00 | 0.00 | 0.00 | 27 | 1019.7 |
| 20260503185045 | 30 | 156 | 6.4 | 16.1 | 0.00 | 0.00 | 0.00 | 29 | 1019.8 |